Regional Weather Roundup
Issued by NWS

Home | Current Version | Previous Version | Graphics & Text | Print | Product List | Glossary On
Versions: 1 2 3 4 5 6 7 8 9 10 11 12 13 14 15 16 17 18 19 20 21 22 23 24 25 26 27 28 29 30 31 32 33 34 35 36 37 38 39 40 41 42 43 44 45 46 47 48 49 50
000
ASUS43 KLSX 281359
RWRMO

WEATHER SUMMARY FOR MISSOURI
NATIONAL WEATHER SERVICE SPRINGFIELD MO
900 AM CDT TUE JUL 28 2015

NOTE: "FAIR" INDICATES FEW OR NO CLOUDS BELOW 12,000 FEET WITH NO
       SIGNIFICANT WEATHER AND/OR OBSTRUCTIONS TO VISIBILITY.
       CURRENT SKY AND/OR WEATHER CONDITIONS ARE NOT AVAILABLE FOR
       CHILLICOTHE AND FARMINGTON.

MOZ001>031-035>038-043-044-053-054-281500-
...NORTHERN AND WESTERN MISSOURI...

CITY           SKY/WX    TMP DP  RH WIND       PRES   REMARKS
KANSAS CTY INT MOSUNNY   85  75  72 S10       29.90R HX  93
KANSAS C DTWN  SUNNY     87  74  64 S12       29.89R HX  95
LEE`S SUMMIT   SUNNY     84  74  71 S13       29.92R HX  91
ST JOSEPH      SUNNY     83  76  79 S12G21    29.87R HX  91
KIRKSVILLE     SUNNY     81  75  82 S8        29.95R

$$
MOZ066>068-077>081-088>096-101>105-281500-
...SOUTHWEST MISSOURI...

CITY           SKY/WX    TMP DP  RH WIND       PRES   REMARKS
SPRINGFIELD    SUNNY     84  73  69 SW10      29.99R HX  90
JOPLIN         SUNNY     86  72  62 S10       29.97R HX  92

$$
MOZ032>034-039>042-045>050-055>058-069>072-281500-
...CENTRAL MISSOURI...

CITY           SKY/WX    TMP DP  RH WIND       PRES   REMARKS
COLUMBIA       SUNNY     82  76  81 S8        29.96R
JEFFERSON CITY SUNNY     83  75  77 S5        29.95R HX  90
ROLLA          SUNNY     82  75  79 SW9       29.98R
SEDALIA        SUNNY     86  75  69 SW13      29.97R HX  95
OSAGE BEACH    SUNNY     84  73  70 SW8       29.98R HX  91

$$
MOZ051-052-059>065-281500-
...EAST CENTRAL MISSOURI...

CITY           SKY/WX    TMP DP  RH WIND       PRES   REMARKS
ST LOUIS INTL  MOSUNNY   86  75  69 SW5       29.97S HX  95
SPIRIT OF STL  MOSUNNY   83  77  82 CALM      29.95S HX  92
ST CHARLES     SUNNY     81  76  84 S5        29.95S

$$
MOZ072>076-082>087-097>100-106>115-281500-
...SOUTH CENTRAL AND SOUTHEAST MISSOURI...

CITY           SKY/WX    TMP DP  RH WIND       PRES   REMARKS
CAPE GIRARDEAU SUNNY     84  78  82 SW5       29.97R HX  95
FARMINGTON     SUNNY     81  75  83 SW6       30.04R
POPLAR BLUFF   SUNNY     83  78  85 S6        29.97R HX  93
WEST PLAINS    SUNNY     83  73  72 SW6       30.03R

$$



USA.gov is the U.S. government's official web portal to all federal, state and local government web resources and services.